Jackson, MI

11:05 AM EDT on April 19, 2018 (GMT -0400)
Jackson County-Reynolds

Weather History for KJXN - February, 2014

Change the Weather History Date:

Wednesday, February 12, 2014

  Actual Average Record
Temperature  
Mean Temperature 8 °F 26 °F  
Max Temperature 23 °F 33 °F 57 °F (1984)
Min Temperature -7 °F 18 °F -17 °F (1967)
Degree Days  
Heating Degree Days 57 39  
Month to date heating degree days 627 484  
Since 1 July heating degree days 4854 4315  
Cooling Degree Days 0 0  
Month to date cooling degree days 0 0  
Year to date cooling degree days 0 0  
Moisture  
Dew Point 1 °F    
Average Humidity 65    
Maximum Humidity 88    
Minimum Humidity 41    
Precipitation  
Precipitation 0.00 in 0.05 in 0.33 in (1951)
Month to date precipitation 1.00 0.50  
Year to date precipitation 2.90 1.99  
Sea Level Pressure  
Sea Level Pressure 30.28 in    
Wind  
Wind Speed 6 mph (SSE)    
Max Wind Speed 13 mph    
Max Gust Speed 14 mph    
Visibility 10 miles    
Events      
T = Trace of Precipitation, MM = Missing Value Source: NWS Daily Summary

Daily Weather History Graph

Daily Weather History Graph

Search for Another Location

Airport or City:

Astronomy

Feb. 12, 2014 Rise Set
Actual Time 7:38 AM EST 6:06 PM EST
Civil Twilight 7:09 AM EST 6:35 PM EST
Nautical Twilight 6:36 AM EST 7:08 PM EST
Astronomical Twilight 6:03 AM EST 7:41 PM EST
Moon 4:18 PM EST (2/12) 5:55 AM EST (2/12)
Length of Visible Light 11h 26m
Length of Day
10h 28m
Waxing Gibbous, 95% of the Moon is Illuminated
Feb 12
Waxing Gibbous
Feb 14
Full
Feb 22
Last Quarter
Mar 1
New
Mar 8
First Quarter

Hourly Weather History & Observations

Time (EST) Temp. Windchill Dew Point Humidity Pressure Visibility Wind Dir Wind Speed Gust Speed Precip Events Conditions
12:56 AM -0.0 °F -7.9 °F -4.0 °F 83% 30.46 in 10.0 mi SSE 3.5 mph - N/A   Clear
1:56 AM -0.0 °F -7.9 °F -5.1 °F 79% 30.45 in 10.0 mi South 3.5 mph - N/A   Clear
2:56 AM -2.0 °F -12.2 °F -6.0 °F 83% 30.42 in 10.0 mi SE 4.6 mph - N/A   Clear
3:56 AM -2.9 °F - -7.1 °F 82% 30.41 in 10.0 mi Calm Calm - N/A   Clear
4:56 AM -5.1 °F -13.6 °F -9.0 °F 83% 30.41 in 10.0 mi SE 3.5 mph - N/A   Clear
5:56 AM -0.0 °F -13.0 °F -4.0 °F 83% 30.42 in 10.0 mi South 6.9 mph - N/A   Clear
6:56 AM -2.0 °F -12.2 °F -5.1 °F 87% 30.39 in 8.0 mi SE 4.6 mph - N/A   Clear
7:56 AM -2.0 °F -12.2 °F -6.0 °F 83% 30.37 in 7.0 mi SE 4.6 mph - N/A   Clear
8:56 AM 1.9 °F -10.6 °F -2.9 °F 80% 30.36 in 8.0 mi SSE 6.9 mph - N/A   Clear
9:56 AM 7.0 °F -1.7 °F 3.0 °F 84% 30.35 in 10.0 mi SSE 4.6 mph - N/A   Clear
10:56 AM 12.0 °F 0.5 °F 3.0 °F 67% 30.35 in 10.0 mi SSE 8.1 mph - N/A   Clear
11:56 AM 18.0 °F 11.1 °F 3.0 °F 52% 30.31 in 10.0 mi SSE 4.6 mph - N/A   Clear
12:56 PM 21.0 °F 10.6 °F 3.0 °F 46% 30.26 in 10.0 mi SSE 9.2 mph - N/A   Clear
1:56 PM 21.9 °F - 1.9 °F 42% 30.22 in 10.0 mi North - - N/A   Clear
2:56 PM 23.0 °F 13.9 °F 3.0 °F 42% 30.19 in 10.0 mi SSW 8.1 mph - N/A   Clear
3:56 PM 21.9 °F 12.5 °F 3.9 °F 46% 30.17 in 10.0 mi SSW 8.1 mph - N/A   Clear
4:56 PM 21.9 °F 12.5 °F 1.9 °F 42% 30.17 in 10.0 mi South 8.1 mph - N/A   Clear
5:56 PM 21.0 °F 13.4 °F 3.9 °F 48% 30.16 in 10.0 mi South 5.8 mph - N/A   Overcast
6:56 PM 19.0 °F 10.0 °F 6.1 °F 57% 30.15 in 10.0 mi SE 6.9 mph - N/A   Overcast
7:56 PM 18.0 °F 9.8 °F 7.0 °F 62% 30.17 in 10.0 mi SE 5.8 mph - N/A   Overcast
8:56 PM 18.0 °F 12.7 °F 7.0 °F 62% 30.17 in 10.0 mi SE 3.5 mph - N/A   Overcast
9:56 PM 18.0 °F 11.1 °F 7.0 °F 62% 30.15 in 10.0 mi SSE 4.6 mph - N/A   Overcast
10:56 PM 16.0 °F 8.8 °F 6.1 °F 65% 30.12 in 10.0 mi SE 4.6 mph - N/A   Overcast
11:56 PM 17.1 °F 6.6 °F 6.1 °F 62% 30.08 in 10.0 mi SSE 8.1 mph - N/A   Overcast